Simultaneous Nadir Overpasses (SNOs) Predictions

Prediction of SNOs between GOES-17 and AQUA Satellite Orbit:

Table of predicted SNOs for the next 14.0 days since TLE Epoch: 1/15/2022
Index Date Time (GOES-17) GOES-17 Lat,Lon AQUA Lat,Lon Distance(km) Time Diff (sec)
1 01/15/2022 11:04:36 -0.04,-137.21 0.92,-141.60 499.64 80
2 01/16/2022 22:31:09 0.03,-137.25 0.82,-133.49 427.11 80
3 01/17/2022 10:52:25 -0.03,-137.27 0.25,-138.65 156.90 80
4 01/19/2022 10:37:33 -0.03,-137.31 -0.37,-135.68 185.22 80
5 01/19/2022 22:58:56 0.03,-137.32 -0.73,-140.87 404.49 80
6 01/21/2022 22:46:45 0.03,-137.36 -0.10,-137.91 62.91 80
7 01/23/2022 22:37:13 0.03,-137.40 0.54,-134.94 278.36 80
8 01/24/2022 10:58:28 -0.03,-137.41 0.53,-140.10 305.82 80
9 01/26/2022 10:43:36 -0.03,-137.44 -0.11,-137.14 34.57 80
10 01/28/2022 10:31:24 0.00,-137.46 -0.71,-134.17 374.36 80
11 01/28/2022 22:52:46 -0.02,-137.45 -0.43,-139.35 215.95 80
